Location: Aiyekoto
(8.4333°N, 4.3667°E)
Time: 23:51:17
(UTC+00:00)

ADEOS - Visible Passes

Search period start: 01 October 2020 00:00
Search period end: 11 October 2020 00:00
Orbit: 792 x 795 km, 98.9° (Epoch: 01 October)

Date Brightness Start Highest point End Pass type
(mag) Time Alt. Az. Time Alt. Az. Time Alt. Az.
01 Oct 6.1 02:52:08 10° ENE 02:55:20 16° E 02:58:32 10° SE visible
01 Oct 4.2 04:30:05 10° NNW 04:34:37 31° WNW 04:39:11 10° SW visible
02 Oct 3.4 04:01:03 10° N 04:06:13 70° WNW 04:11:25 10° SSW visible
03 Oct 4.2 03:32:43 10° NNE 03:37:47 53° ESE 03:42:51 10° S visible
04 Oct 5.6 03:05:11 10° NE 03:09:19 24° ESE 03:13:28 10° SSE visible
04 Oct 4.7 04:44:39 10° NNW 04:48:33 22° WNW 04:52:29 10° SW visible
05 Oct 6.6 02:40:09 10° E 02:40:51 10° E 02:41:32 10° ESE visible
05 Oct 3.7 04:15:12 10° N 04:20:10 47° WNW 04:25:10 10° SSW visible
06 Oct 3.6 03:46:33 10° NNE 03:51:46 78° ESE 03:56:58 10° S visible
07 Oct 5.0 03:18:36 10° NE 03:23:18 35° ESE 03:28:01 10° SSE visible
07 Oct 5.1 04:59:37 10° NW 05:02:29 15° WNW 05:05:20 10° WSW visible
08 Oct 6.2 02:51:45 10° ENE 02:54:50 16° E 02:57:54 10° SE visible
08 Oct 4.2 04:29:31 10° NNW 04:34:07 32° WNW 04:38:45 10° SW visible
09 Oct 3.4 04:00:32 10° N 04:05:43 73° WNW 04:10:56 10° SSW visible
10 Oct 4.3 03:32:14 10° NNE 03:37:17 51° ESE 03:42:20 10° S visible
